Regional Weather Roundup
Issued by NWS Jackson, KY

Home | Current Version | Previous Version | Text Only | Print | Product List | Glossary Off
Versions: 1 2 3 4 5 6 7 8 9 10 11 12 13 14 15 16 17 18 19 20 21 22 23 24 25 26 27

000
ASUS43 KJKL 310610
RWRJKL

EAST KENTUCKY HOURLY WEATHER ROUNDUP
NATIONAL WEATHER SERVICE JACKSON KY
200 AM EDT SUN JUL 31 2016

NOTE: "FAIR" INDICATES FEW OR NO CLOUDS BELOW 12,000 FEET WITH
NO SIGNIFICANT WEATHER AND/OR OBSTRUCTIONS TO VISIBILITY.

* THESE REPORTS ARE NOT UNDER NWS QUALITY CONTROL AND MAY NOT
  REPORT WEATHER SUCH AS PRECIPITATION AND FOG.

KYZ079-080-083-085-087-088-110-112-115-119-120-310700
...EASTERN KENTUCKY...

CITY           SKY/WX    TMP DP  RH WIND       PRES   REMARKS
JACKSON        PTCLDY    70  68  93 CALM      30.03F
6HR MIN TEMP:  70; 6HR MAX TEMP:  78;

LONDON         CLEAR     72  68  87 CALM      30.03F
6HR MIN TEMP:  71; 6HR MAX TEMP:  83;

SOMERSET*      PTCLDY    70  70 100 CALM      30.04S
MONTICELLO*    PTCLDY   N/A N/A N/A NW9       30.05S HAZE
WILLIAMSBURG*  CLEAR     72  72 100 CALM      30.04S
MIDDLESBORO*   CLOUDY    70  70 100 CALM      30.05F FOG
6HR MIN TEMP:  70; 6HR MAX TEMP:  77;

HARLAN APT*    CLOUDY    68  66  94 CALM      30.06S
PIKE CO APT*     N/A     71  71 100 CALM      30.04F
MOREHEAD APT*  CLOUDY    70  68  94 CALM      30.03S
ASHLAND*       PTCLDY    73  70  88 CALM      29.97S
$$

KYZ035-036-041-042-044-050-067-078-099-310700
...CENTRAL KENTUCKY...

CITY           SKY/WX    TMP DP  RH WIND       PRES   REMARKS
MT STERLING*   MOCLDY    72  70  94 CALM      30.03S
FLEMING/MASON* CLEAR     69  68  98 SW3       30.01F
DANVILLE*      CLOUDY    70  70 100 CALM      30.03S
LEXINGTON      MOCLDY    72  69  90 CALM      30.01F
6HR MIN TEMP:  72; 6HR MAX TEMP:  77;

FRANKFORT      CLEAR     70  67  90 CALM      30.00S
6HR MIN TEMP:  70; 6HR MAX TEMP:  77;

LOUISVILLE     MOCLDY    74  70  87 CALM      29.99S
6HR MIN TEMP:  74; 6HR MAX TEMP:  80;

LEBANON*         N/A     72  72 100 CALM      30.02S FOG
GLASGOW*       CLOUDY    72  72 100 CALM      30.01S
BOWLING GREEN  CLEAR     74  71  91 CALM      30.00F
6HR MIN TEMP:  73; 6HR MAX TEMP:  82;

$$

KYZ091>093-OHZ055-061-077-WVZ005-015-034-035-042-310700
...SOUTHERN OHIO/WEST VIRGINIA...

CITY           SKY/WX    TMP DP  RH WIND       PRES   REMARKS
COVINGTON      CLEAR     73  72  96 CALM      29.99S
COLUMBUS       PTCLDY    73  68  84 CALM      29.96F
DAYTON         PTCLDY    71  67  87 CALM      29.99S
WILMINGTON     PTCLDY    69  69 100 S3        29.99S
HUNTINGTON       N/A     71  66  84 SW3       29.99R
CHARLESTON     MOCLDY    74  69  85 S5        30.00S
PINEVILLE*       N/A     68  65  89 MISG      30.11F
BECKLEY          N/A     67  63  87 CALM      30.09F
BLUEFIELD        N/A     69  65  86 W3        30.12F
LOGAN CO APT*    N/A     70  70 100 CALM      30.03F
$$

VAZ002-007-008-TNZ017-027-036-066-071-310700
...SOUTHWEST VIRGINIA/EAST TENNESSEE...

CITY           SKY/WX    TMP DP  RH WIND       PRES   REMARKS
WISE*            N/A     70  68  94 CALM      30.12S
JONESVILLE*    FOG       72  72 100 CALM      30.07F VSB 1/4
ABINGDON*      LGT RAIN  73  70  92 CALM      30.09S
BRISTOL        CLOUDY    72  70  93 CALM      30.06S
MORRISTOWN*    CLEAR     73  68  83 CALM      30.04S
SEVIERVILLE*   CLEAR     73  68  83 CALM      30.03S
KNOXVILLE      PTCLDY    75  71  87 SW5       30.02
OAK RIDGE      CLOUDY    76  71  85 CALM      30.04S
CROSSVILLE     CLEAR     70  69  97 CALM      30.09R FOG
NASHVILLE      MOCLDY    77  71  82 CALM      30.00F
$$

...KEY TO REMARKS...
VSB - VISIBILITY IN MILES
WCI - WIND CHILL INDEX
HX  - HEAT INDEX

$$




USA.gov is the U.S. government's official web portal to all federal, state and local government web resources and services.